Richmond Raaf, Australia

1:14 AM AEDT on December 06, 2016 (GMT +1100)
Richmond (Military)

Weather History for YSRI - June, 2013

Change the Weather History Date:

Monday, June 24, 2013

  Actual Average Record
Temperature  
Mean Temperature 52 °F -  
Max Temperature 57 °F - - ()
Min Temperature 48 °F - - ()
Degree Days  
Heating Degree Days 12    
Growing Degree Days 2 (Base 50)    
Moisture  
Dew Point 50 °F    
Average Humidity 91    
Maximum Humidity 100    
Minimum Humidity 72    
Precipitation  
Precipitation 0.00 in - - ()
Sea Level Pressure  
Sea Level Pressure 30.10 in    
Wind  
Wind Speed 5 mph ()    
Max Wind Speed 10 mph    
Max Gust Speed -    
Visibility 6.0 miles    
Events Rain    
T = Trace of Precipitation, MM = Missing Value Source: Averaged Metar Reports

Daily Weather History Graph

Daily Weather History Graph

Search for Another Location

Airport or City:

Trip Planner

Search our weather history database for the weather conditions in past years. The results will help you decide how hot, cold, wet, or windy it might be!

Date:

Astronomy

Jun. 24, 2013 Rise Set
Actual Time 7:01 AM AEST 4:56 PM AEST
Civil Twilight 6:33 AM AEST 5:24 PM AEST
Nautical Twilight 6:02 AM AEST 5:55 PM AEST
Astronomical Twilight 5:32 AM AEST 6:26 PM AEST
Moon 6:00 PM AEST (6/24) 7:15 AM AEST (6/24)
Length of Visible Light 10h 50m
Length of Day
9h 55m
Waxing Gibbous, 99% of the Moon is Illuminated
Jun 24
Waxing Gibbous
Jun 30
Last Quarter
Jul 8
New
Jul 16
First Quarter
Jul 23
Full

Hourly Weather History & Observations

Time (AEST) Temp. Dew Point Humidity Pressure Visibility Wind Dir Wind Speed Gust Speed Precip Events Conditions
12:00 AM 51.8 °F 50.0 °F 94% 30.27 in 6.2 mi SW 8.1 mph - N/A   Overcast
12:30 AM 51.8 °F 50.0 °F 94% 30.24 in 6.2 mi SW 6.9 mph - N/A   Overcast
1:00 AM 51.8 °F 50.0 °F 94% 30.24 in 6.2 mi SSW 8.1 mph - N/A   Overcast
1:30 AM 51.8 °F 50.0 °F 94% 30.24 in 6.2 mi SW 9.2 mph - N/A   Mostly Cloudy
2:00 AM 51.8 °F 50.0 °F 94% 30.24 in 6.2 mi SW 9.2 mph - N/A   Overcast
2:30 AM 51.8 °F 48.2 °F 88% 30.21 in 6.2 mi SSW 5.8 mph - N/A   Overcast
3:00 AM 50.0 °F 48.2 °F 94% 30.21 in 6.2 mi WSW 1.2 mph - N/A   Mostly Cloudy
3:30 AM 50.0 °F 48.2 °F 94% 30.21 in 6.2 mi SW 1.2 mph - N/A   Overcast
4:00 AM 50.0 °F 48.2 °F 94% 30.21 in 6.2 mi SSW 4.6 mph - N/A   Overcast
4:30 AM 50.0 °F 48.2 °F 94% 30.21 in 6.2 mi West 6.9 mph - N/A   Overcast
5:00 AM 50.0 °F 48.2 °F 94% 30.18 in 6.2 mi Calm Calm - N/A   Overcast
5:30 AM 50.0 °F 48.2 °F 94% 30.18 in 6.2 mi Calm Calm - N/A   Overcast
6:00 AM 50.0 °F 48.2 °F 94% 30.18 in 6.2 mi West 4.6 mph - N/A   Overcast
6:30 AM 50.0 °F 48.2 °F 94% 30.18 in 6.2 mi ESE 5.8 mph - N/A   Scattered Clouds
7:00 AM 50.0 °F 46.4 °F 87% 30.18 in 6.2 mi South 2.3 mph - N/A   Overcast
7:30 AM 48.2 °F 48.2 °F 100% 30.18 in 6.2 mi Calm Calm - N/A   Light Drizzle
8:00 AM 50.0 °F 50.0 °F 100% 30.18 in 6.2 mi Calm Calm - N/A Rain Light Rain
8:30 AM 50.0 °F 50.0 °F 100% 30.18 in 6.2 mi NNW 4.6 mph - N/A   Overcast
9:00 AM 51.8 °F 50.0 °F 94% 30.18 in 6.2 mi Calm Calm - N/A   Overcast
9:30 AM 53.6 °F 50.0 °F 88% 30.18 in 6.2 mi Calm Calm - N/A   Overcast
10:00 AM 51.8 °F 50.0 °F 94% 30.18 in 6.2 mi NE 9.2 mph - N/A   Overcast
10:30 AM 53.6 °F 50.0 °F 88% 30.15 in 6.2 mi NE 5.8 mph - N/A   Overcast
11:00 AM 53.6 °F 50.0 °F 88% 30.15 in 6.2 mi North 6.9 mph - N/A   Overcast
11:19 AM 53.6 °F 48.2 °F 82% 30.15 in 3.7 mi NNW 5.8 mph - N/A   Light Drizzle
11:30 AM 53.6 °F 48.2 °F 82% 30.12 in 6.2 mi Calm Calm - N/A Rain Light Rain Showers
11:36 AM 53.6 °F 48.2 °F 82% 30.12 in 6.2 mi Calm Calm - N/A   Overcast
12:00 PM 55.4 °F 48.2 °F 77% 30.12 in 6.2 mi West 3.5 mph - N/A   Overcast
12:30 PM 55.4 °F 48.2 °F 77% 30.09 in 6.2 mi West 5.8 mph - N/A   Overcast
1:00 PM 55.4 °F 50.0 °F 82% 30.09 in 6.2 mi SW 8.1 mph - N/A   Overcast
1:30 PM 57.2 °F 50.0 °F 77% 30.06 in 6.2 mi SW 8.1 mph - N/A   Overcast
2:00 PM 57.2 °F 48.2 °F 72% 30.06 in 6.2 mi SSW 10.4 mph - N/A   Overcast
2:30 PM 57.2 °F 48.2 °F 72% 30.06 in 6.2 mi SW 8.1 mph - N/A   Overcast
3:00 PM 57.2 °F 48.2 °F 72% 30.06 in 6.2 mi SW 6.9 mph - N/A   Overcast
3:30 PM 57.2 °F 48.2 °F 72% 30.04 in 6.2 mi SW 6.9 mph - N/A   Overcast
4:00 PM 55.4 °F 50.0 °F 82% 30.04 in 6.2 mi SSW 3.5 mph - N/A   Scattered Clouds
4:30 PM 55.4 °F 50.0 °F 82% 30.04 in 6.2 mi Calm Calm - N/A   Scattered Clouds
5:00 PM 53.6 °F 50.0 °F 88% 30.04 in 6.2 mi Calm Calm - N/A   Overcast
5:30 PM 53.6 °F 50.0 °F 88% 30.04 in 6.2 mi Calm Calm - N/A   Overcast
6:00 PM 53.6 °F 50.0 °F 88% 30.04 in 6.2 mi Calm Calm - N/A   Overcast
6:30 PM 53.6 °F 50.0 °F 88% 30.04 in 6.2 mi Calm Calm - N/A   Overcast
7:00 PM 53.6 °F 51.8 °F 94% 30.04 in 6.2 mi South 4.6 mph - N/A Rain Light Rain
7:35 PM 51.8 °F 51.8 °F 100% 30.04 in 5.6 mi SSW 6.9 mph - N/A Rain Rain
8:00 PM 51.8 °F 51.8 °F 100% 30.01 in 6.2 mi SSW 8.1 mph - N/A Rain Rain
8:15 PM 51.8 °F 51.8 °F 100% 30.04 in 6.2 mi SSW 6.9 mph - N/A Rain Light Rain
8:30 PM 51.8 °F 51.8 °F 100% 30.01 in 6.2 mi SW 6.9 mph - N/A Rain Light Rain
9:00 PM 51.8 °F 51.8 °F 100% 30.01 in 6.2 mi WSW 9.2 mph - N/A Rain Light Rain Showers
9:30 PM 50.0 °F 50.0 °F 100% 29.98 in 6.2 mi WNW 6.9 mph - N/A   Overcast
10:00 PM 50.0 °F 50.0 °F 100% 29.95 in 6.2 mi NNW 4.6 mph - N/A   Overcast
10:25 PM 50.0 °F 50.0 °F 100% 29.95 in 3.7 mi North 2.3 mph - N/A Rain Rain
10:30 PM 50.0 °F 50.0 °F 100% 29.95 in 3.1 mi North 1.2 mph - N/A Rain Rain
10:51 PM 50.0 °F 50.0 °F 100% 29.95 in 6.2 mi North 4.6 mph - N/A Rain Rain
11:00 PM 50.0 °F 50.0 °F 100% 29.95 in 6.2 mi NNW 5.8 mph - N/A Rain Light Rain
11:26 PM 50.0 °F 50.0 °F 100% 29.92 in 3.7 mi North 5.8 mph - N/A   Drizzle
11:30 PM 50.0 °F 50.0 °F 100% 29.92 in 3.7 mi North 6.9 mph - N/A   Drizzle
11:40 PM 50.0 °F 50.0 °F 100% 29.92 in 6.2 mi North 6.9 mph - N/A Rain Light Rain